Regional Weather Roundup
Issued by NWS

Home | Current Version | Previous Version | Text Only | Print | Product List | Glossary On
Versions: 1 2 3 4 5 6 7 8 9 10 11 12 13 14 15 16 17 18 19 20 21 22 23 24 25 26 27 28 29 30 31 32 33 34 35 36 37 38 39 40 41 42 43 44 45 46 47 48 49 50
000
ASUS45 KSLC 051410
RWRUT

UTAH REGIONAL WEATHER ROUNDUP
NATIONAL WEATHER SERVICE SALT LAKE CITY UT
800 AM MDT SAT SEP 05 2015

UTZ001>011-023>025-051500-

NORTHERN UTAH

CITY           SKY/WX    TMP DP  RH WIND       PRES   REMARKS
BRIGHAM CITY   PTSUNNY   59  34  39 N14       29.88R
HILL AFB       CLOUDY    67  43  41 SW7       29.89R
LOGAN          MOSUNNY   54  40  59 NW3       29.91R
OGDEN          PTSUNNY   71  41  33 SW16G29   29.86R
PROVO AIRPORT  MOSUNNY   61  41  48 SE10      29.94R
SALT LAKE CITY MOSUNNY   72  39  30 S18G24    29.87R
VERNAL         SUNNY     56  50  80 CALM      30.04R
WENDOVER       PTCLDY    63  27  25 N5        29.91R
HEBER CITY     PTSUNNY   66  36  32 S12G20    29.98R
WEST JORDAN    SUNNY     70  39  32 S22G29    29.91R

$$

UTZ012>022-026-027-051500-

SOUTHERN/CENTRAL UTAH

CITY           SKY/WX    TMP DP  RH WIND       PRES   REMARKS
BLANDING       PTSUNNY   58  55  90 NE5       30.22R
BRYCE CANYON   PTSUNNY   55  48  77 SE9       30.19R
CEDAR CITY     PTCLDY    64  46  52 S16G22    30.02S
DELTA          SUNNY     62  39  41 S12       29.96R
HANKSVILLE     SUNNY     70  50  49 SE6       30.02R
MILFORD        CLEAR     63  39  41 SW18      29.96R
MOAB/CYNLANDS  SUNNY     63  51  65 E9        30.02R
PRICE          SUNNY     60  47  61 NE3       30.07R
ST GEORGE      MOSUNNY   73  52  46 SE8       29.93R
KANAB          MOSUNNY   57  54  88 CALM      30.12R

$$

REGIONAL REPORTS     COLORADO/ARIZONA

CITY           SKY/WX    TMP DP  RH WIND       PRES   REMARKS
CRAIG, CO      PTSUNNY   55  47  74 E8        30.11S
GRAND JUNCTION SUNNY     60  52  74 E23G31    30.07S
RIFLE          MOSUNNY   57  54  89 CALM      30.14S
MONTROSE       CLOUDY    54  53  97 CALM      30.18R
CORTEZ         CLOUDY    57  55  93 CALM      30.17R
PAGE, AZ       SUNNY     69  53  56 S6        30.02R
GRAND CANYON   SUNNY     53  50  89 CALM      30.18S
KINGMAN        CLEAR     66  54  65 E9        29.98R
FLAGSTAFF      PTSUNNY   56  55  97 VRB3      30.22R

$$

REGIONAL REPORTS    NEVADA/IDAHO/WYOMING

CITY           SKY/WX    TMP DP  RH WIND       PRES   REMARKS
LAS VEGAS, NV  PTCLDY    75  37  25 S5        29.83R
ELY            CLEAR     58  21  24 SW17G24   29.99R
ELKO           CLEAR     43  30  60 CALM      30.00R
POCATELLO, ID  MOSUNNY   50  36  58 SW13      29.97R
BURLEY         CLOUDY    48  37  65 W8G17     29.98R
EVANSTON, WY   SUNNY     58  37  45 S20       30.01S
ROCK SPRINGS   MOSUNNY   57  45  64 S16       30.05R
KEMMERER       MOSUNNY   54  36  50 S7        30.05R

$$



USA.gov is the U.S. government's official web portal to all federal, state and local government web resources and services.